This is the latest recevied weather packets stored in our database for station/object NQ9F. If no packets are shown the sender has not sent any weather packets the latest 10 day(s).
| Time | Temp. | Humidity | Pressure | Rain* | Wind** | Luminosity | Snow |
|---|---|---|---|---|---|---|---|
| 1778001766 | 27.78° C | 68% | 1005.3 hPa | 0 mm | - | 509 W/m² | - |
| 1778001466 | 27.78° C | 67% | 1005.3 hPa | 0 mm | - | 659 W/m² | - |
| 1778001163 | 27.78° C | 67% | 1005.1 hPa | 0 mm | - | 620 W/m² | - |
| 1778000860 | 27.78° C | 66% | 1005 hPa | 0 mm | - | 606 W/m² | - |
| 1778000557 | 27.78° C | 67% | 1005 hPa | 0 mm | - | 617 W/m² | - |
| 1778000252 | 27.22° C | 67% | 1005.2 hPa | 0 mm | - | 656 W/m² | - |
| 1777999949 | 27.78° C | 66% | 1004.9 hPa | 0 mm | - | 640 W/m² | - |
| 1777999644 | 27.22° C | 68% | 1005 hPa | 0 mm | - | 678 W/m² | - |
| 1777999342 | 27.22° C | 69% | 1005.1 hPa | 0 mm | - | 649 W/m² | - |
| 1777999040 | 26.67° C | 68% | 1005.2 hPa | 0 mm | - | 482 W/m² | - |
| 1777998738 | 26.67° C | 71% | 1005.4 hPa | 0 mm | - | 770 W/m² | - |
| 1777998435 | 26.11° C | 72% | 1005.1 hPa | 0 mm | - | 586 W/m² | - |
| 1777998132 | 26.11° C | 73% | 1005 hPa | 0 mm | - | 430 W/m² | - |
| 1777997829 | 26.11° C | 73% | 1004.9 hPa | 0 mm | - | 432 W/m² | - |
| 1777997527 | 25.56° C | 74% | 1005 hPa | 0 mm | - | 469 W/m² | - |
| 1777997224 | 25.56° C | 75% | 1004.6 hPa | 0 mm | - | 465 W/m² | - |
| 1777996921 | 25° C | 76% | 1004.6 hPa | 0 mm | - | 385 W/m² | - |
| 1777996617 | 25° C | 76% | 1004.4 hPa | 0 mm | - | 454 W/m² | - |
| 1777996314 | 25° C | 77% | 1004.6 hPa | 0 mm | - | 509 W/m² | - |
| 1777996010 | 24.44° C | 78% | 1004.6 hPa | 0 mm | - | 389 W/m² | - |
| 1777995706 | 24.44° C | 78% | 1004.6 hPa | 0 mm | - | 402 W/m² | - |
| 1777995403 | 23.89° C | 79% | 1004.6 hPa | 0 mm | - | 433 W/m² | - |
| 1777995100 | 23.89° C | 79% | 1004.4 hPa | 0 mm | - | 336 W/m² | - |
| 1777994797 | 23.89° C | 80% | 1004.6 hPa | 0 mm | - | 300 W/m² | - |
| 1777994493 | 23.89° C | 79% | 1004.7 hPa | 0 mm | - | 297 W/m² | - |
* Rain latest hour (hover to see other rain measurements)
** Current wind speed in m/s (hover to see current wind gust speed)